Regional Weather Roundup
Issued by NWS

Home | Current Version | Previous Version | Graphics & Text | Print | Product List | Glossary On
Versions: 1 2 3 4 5 6 7 8 9 10 11 12 13 14 15 16 17 18 19 20 21 22 23 24 25 26 27 28 29 30 31 32 33 34 35 36 37 38 39 40 41 42 43 44 45 46 47 48 49 50
000
ASUS43 KDMX 250301
RWRIA

WEATHER ROUNDUP FOR IOWA
NATIONAL WEATHER SERVICE DES MOINES IA
1000 PM CDT THU MAY 24 2018

NOTE: "FAIR" INDICATES FEW OR NO CLOUDS BELOW 12,000 FEET WITH NO
SIGNIFICANT WEATHER AND/OR OBSTRUCTIONS TO VISIBILITY.

* - THESE STATIONS ARE NOT NWS STATIONS...THUS NOT UNDER NWS
QUALITY CONTROL.  THEY ALSO DO NOT REPORT WEATHER SUCH
AS PRECIPITATION OR FOG.

IAZ001>003-012>014-020>022-031>034-043>046-250400-
   NORTHWEST IOWA

CITY           SKY/WX    TMP DP  RH WIND       PRES   REMARKS
CARROLL *      MOCLDY    77  64  65 S8        29.94R
CHEROKEE *     CLEAR     76  63  63 S8        29.89S
DENISON *      PTCLDY    79  64  61 S10G18    29.94S HX  81
LE MARS *      CLEAR     77  63  61 S8        29.87S
ORANGE CITY *  CLEAR     75  61  60 E5        29.89S
SHELDON *      CLEAR     72  64  78 S8        29.87F
SIOUX CITY     CLEAR     78  62  57 S13       29.87S HX  80
SPENCER        CLOUDY    76  63  64 NW3       29.90R
STORM LAKE *   CLEAR     75  63  64 S14       29.92S
$$

IAZ055>058-069>071-079>083-090>094-250400-
   SOUTHWEST IOWA

CITY           SKY/WX    TMP DP  RH WIND       PRES   REMARKS
ATLANTIC *     MOCLDY    77  66  69 S14       29.95R
AUDUBON *      CLOUDY    75  68  78 S8        29.95S
CLARINDA *       N/A     75  64  69 S8        29.98R
COUNCIL BLFS * MOCLDY    77  70  78 S10G18    29.93R
CRESTON *      CLOUDY    75  64  69 S8        29.98S
HARLAN  *      MOCLDY    77  66  69 S10       29.97R
LAMONI         CLOUDY    75  65  70 S6        29.98S
RED OAK *      MOCLDY    77  64  65 S12       29.95R
SHENANDOAH *   MOCLDY    75  63  64 S14       29.95R
$$

IAZ047>049-059>061-072>074-084-250400-
   CENTRAL IOWA

CITY           SKY/WX    TMP DP  RH WIND       PRES   REMARKS
AMES           CLOUDY    75  63  66 S10       29.95R
ANKENY *       PTCLDY    77  64  65 S5        29.97S
BOONE *        PTCLDY    79  63  57 S9        29.95R HX  80
CHARITON *     CLOUDY    73  66  78 S8        29.98S
DES MOINES     MOCLDY    77  65  66 S7        29.95S
GRINNELL*      CLEAR     76  63  65 S7        29.99R
KNOXVILLE *    PTCLDY    75  64  69 S7        29.96F
MARSHALLTOWN   CLEAR     76  65  68 S8        29.96R
NEWTON *       CLEAR     75  64  69 S7        29.97S
PELLA *        PTCLDY    75  64  69 SE5       29.98S
PERRY *        FAIR      78  59  52 S10       29.94S
$$

IAZ004>006-015-016-023>025-035-036-250400-
   NORTH CENTRAL IOWA

CITY           SKY/WX    TMP DP  RH WIND       PRES   REMARKS
ALGONA *       CLOUDY    70  61  73 NE7       29.94F
CLARION *      CLOUDY    75  64  69 S10       29.95R
ESTHERVILLE    CLOUDY    73  64  73 S10       29.89F
FORT DODGE *   MOCLDY    77  64  64 S7        29.95R
MASON CITY     CLOUDY    77  62  59 SW12      29.98R
FOREST CITY *  MOCLDY    72  61  68 W18G29    29.97R
IOWA FALLS *   FAIR      75  64  67 S7        29.97R
$$

IAZ007>011-017>019-026>030-037>042-050>054-066-250400-
   NORTHEAST IOWA

CITY           SKY/WX    TMP DP  RH WIND       PRES   REMARKS
CEDAR RAPIDS   FAIR      77  61  57 S8        29.98R
CHARLES CITY * FAIR      75  61  60 S9G15     29.97R
CLINTON *      FAIR      75  61  61 S8        30.01R
DECORAH *      FAIR      77  64  65 S6        29.96R
DUBUQUE        FAIR      75  60  59 S10       30.00R
MONTICELLO *   FAIR      75  61  60 S7        29.98R
OELWEIN *      FAIR      77  64  65 S12       29.98R
WATERLOO       FAIR      76  63  64 S8        29.95R
$$

IAZ064-065-067-068-078-250400-
   EAST CENTRAL IOWA

CITY           SKY/WX    TMP DP  RH WIND       PRES   REMARKS
DAVENPORT      FAIR      74  59  59 S7        30.02R
IOWA CITY      FAIR      75  61  61 SE5       30.00R
MUSCATINE *    FAIR      73  63  68 S5        29.99S
QUAD CITIES    FAIR      77  60  55 S6        29.99S
$$

IAZ062-063-075>077-085>089-095>099-250400-
   SOUTHEAST IOWA

CITY           SKY/WX    TMP DP  RH WIND       PRES   REMARKS
BURLINGTON     CLEAR     74  59  59 S5        30.00S
FAIRFIELD *    CLEAR     75  61  60 S5        29.99S
FORT MADISON * CLEAR     77  57  50 S6        30.01F
KEOKUK *       CLEAR     77  59  53 S7        30.00S
OSKALOOSA *    FAIR      76  65  69 S7        29.99S
CENTERVILLE *  FAIR      75  68  78 CALM      30.01S
OTTUMWA        CLEAR     76  65  68 S7        29.98S
WASHINGTON *   CLEAR     77  61  57 S9        30.00S
$$

ABBREVIATIONS USED IN REMARKS
   TC - TEMPERATURES IN CELSIUS
  WCI - WIND CHILL INDEX
   HX - HEAT INDEX
  VSB - VISIBILITY
$$




USA.gov is the U.S. government's official web portal to all federal, state and local government web resources and services.